Regional Weather Roundup
Issued by NWS Green Bay, WI

Home | Current Version | Previous Version | Graphics & Text | Print | Product List | Glossary Off
Versions: 1 2 3 4 5 6 7 8 9 10 11 12 13 14 15 16 17 18 19 20 21 22 23 24 25 26 27 28 29 30 31 32 33 34 35 36 37 38 39 40 41 42 43 44 45 46 47 48 49 50

000
ASUS43 KGRB 290111
RWRGRB

NORTH-CENTRAL AND NORTHEAST WISCONSIN REGIONAL WEATHER ROUNDUP
NATIONAL WEATHER SERVICE GREEN BAY WI
800 PM CDT THU MAY 28 2015

WIZ005-009-010>012-018-019-290200-
NORTH CENTRAL WISCONSIN

CITY           SKY/WX    TMP DP  RH WIND       PRES   REMARKS
IRONWOOD       CLEAR     77  50  38 SW9       29.91F
MANITOWISH WTR PTCLDY    74  53  47 S12G18    29.99F
ARBOR VITAE    PTCLDY    76  56  50 S8        30.01S
EAGLE RIVER    PTCLDY    75  50  41 SW8       30.01F
LAND O LAKES   CLEAR     76  51  42 S6        30.02S
RHINELANDER    PTCLDY    75  53  46 S10       30.03F
PHILLIPS       CLEAR     75  55  49 S14       29.99S
ANTIGO         PTCLDY    69  58  67 S8        30.05F
TOMAHAWK       MOCLDY    72  55  55 CALM      30.03S
MERRILL        PTCLDY    74  57  55 S6        30.03F
$$

WIZ013-073-290200-
NORTHEAST WISCONSIN

CITY           SKY/WX    TMP DP  RH WIND       PRES   REMARKS
IRON MOUNTAIN  PTCLDY    69  60  73 SE9       30.03F
MARINETTE      CLEAR     72  57  60 S7        30.06S
OCONTO         PTCLDY    72  60  65 S7        30.05F
$$

WIZ017-030-035>037-045-290200-
CENTRAL WISCONSIN

CITY           SKY/WX    TMP DP  RH WIND       PRES   REMARKS
MEDFORD        PTCLDY    69  59  70 S7        30.02F
WAUSAU         PTCLDY    75  56  51 S7        30.01F
MOSINEE        CLEAR     72  57  60 S8        30.04F
MARSHFIELD     PTCLDY    74  53  48 S12       30.02F
WISC RAPIDS    PTCLDY    76  52  43 SW9       30.05F
STEVENS POINT  PTCLDY    74  52  46 S12G17    30.04F
WAUPACA        CLEAR     76  56  49 S6        30.05F
SHAWANO        PTCLDY    78  56  47 S5        30.05F
CLINTONVILLE   CLEAR     75  55  50 S7        30.05F
$$

WIZ038-039-048-051-290200-
FOX VALLEY

CITY           SKY/WX    TMP DP  RH WIND       PRES   REMARKS
NWS GREEN BAY  CLEAR     74  59  59 SE9       30.06F
APPLETON       PTCLDY    73  55  53 S6        30.07F
OSHKOSH        CLEAR     71  57  61 S7        30.06F
FOND DU LAC    CLEAR     74  59  59 S10       30.07F
$$

WIZ022-050-052-290200-
EAST CENTRAL WISCONSIN

CITY           SKY/WX    TMP DP  RH WIND       PRES   REMARKS
STURGEON BAY   PTCLDY    66  54  63 S15       30.11S
MANITOWOC      PTCLDY    66  54  65 S8        30.10F
SHEBOYGAN      PTCLDY    69  55  60 S5        30.10F
$$

LMZ563-521-522-541>543-290200-
LAKESHORE

STATION/POSITION TIME  TEMP    WIND        PRES    VSBY  WAVE
                       AIR SEA DIR/SP/G                  HT/PER
                 (UTC) (F)     (DEG/KT/KT) (MB)    (MI)  (FT/S)
SHEBOYGAN LKSHOR 0100   61     180/ 18/ 19 1019.6F
KEWAUNEE LKSHORE 0000   52     180/ 10/ 12 1018.6F
ALGOMA MARINA    0038          210/ 11/ 13   N/A
TWO RIVERS CG    0025   54 52              1022.6   3 1/2  1
NORTHPORT PIER   0000   61     150/  8/ 16 1019.0S
N MID LAKE BUOY  0050   42 37  190/ 12/ 12 1019.6F         1
SISTER BAY LKSHO 0033   68     190/ 21/ 24   N/A
CHAMBERS ISLAND  0000   71     150/  5/ 15 1018.3S
MENOMINEE LKSHOR 0000   68     180/  9/ 12 1018.7F
$$


USA.gov is the U.S. government's official web portal to all federal, state and local government web resources and services.